THOR ABLESTAR DEB, 475

Orbit data source: Space-Track

THOR ABLESTAR DEB, 475 is space debris in LEO originally from a launch on Thu, 29 Jun 1961 UTC launched from the Air Force Eastern Test Range (AFETR). Debris objects in space refer to the collection of defunct objects orbiting the Earth. Examples of debris include non-operational satellites, rocket bodies, and fragments generated from explosions, collisions, or faulty payload assembly.

Loading next visibility...
Identifier
475, 1961-015FM
Orbit
LEO
Country
Flag of USUS
Related business
Manufacturer
Unknown
Mission
Spacecraft
Bus & Motor
Unknown
Mass
Unknown
Launch date (UTC)
1961-06-29 (65 years ago)
Launch vehicle
Unknown
Launch site
Air Force Eastern Test Range (AFETR)
Object type
Payload
Rocket body
Debris
Shape & HBR
Unknown shape, 0.1 m
Radar Cross Section
Medium (>0.1 m² and <1 m²)

Expand to show TLE details & history
Last TLE update: 5 days ago

TLE from 5 days ago
0 THOR ABLESTAR DEB
1 00475U 61015FM  26153.81611575  .00003305  00000-0  13544-2 0  9990
2 00475  66.2209  55.4999 0129872 116.3694 245.0799 14.23888126285748
Epoch: 2026-06-02T19:35Z
TLE epoch observation values (Epoch: 2026-06-02T19:35:12.400Z)
Latitude
-0.00002°
Longitude
-129.58544°
Altitude
854.639 km
Speed
7.405 km/s
True Right ascension
03h 41m 59s
True Declination
0° 00' 00"
Sunlit
Object was in daylight at epoch
Visualization orbit readout
Latitude
Unknown
Longitude
Unknown
Altitude
Unknown
Speed
Unknown
Apparent Right ascension
Unknown
Apparent Declination
Unknown
Sunlit
N/A
Visualization observer readout
Local Sidereal Time
12:25:33
Azimuth
Unknown
Elevation
Unknown
Doppler factor
Unknown
Orbital elements
Apogee altitude
904.031 km
Perigee altitude
717.306 km
Semi-major axis
7,188.806 km
Eccentricity
0.01299
Inclination
66.2209°
RAAN
55.4999°
Arg. of periapsis
116.3694°
True anomaly
243.73953°
Mean anomaly
245.0799°
Eccentric anomaly
244.40879°
Mean motion
3.56089 °/min
Orbital period
101.1 mins
BSTAR
0.0013544
Loading maneuver chart data...
Computing Atmospheric mass density...

Documentation

Showing up to 5 results
|